DELTA 1 DEB, 10721

Orbit data source: Space-Track

DELTA 1 DEB, 10721 is space debris in SSO originally from a launch on Thu, 29 Jul 1976 UTC launched from the Air Force Western Test Range (AFWTR). Debris objects in space refer to the collection of defunct objects orbiting the Earth. Examples of debris include non-operational satellites, rocket bodies, and fragments generated from explosions, collisions, or faulty payload assembly.

Loading next visibility...
Identifier
10721, 1976-077AS
Orbit
SSO
Country
Flag of USUS
Related business
Manufacturer
Unknown
Mission
Spacecraft
Bus & Motor
Unknown
Mass
Unknown
Launch date (UTC)
1976-07-29 (49 years ago)
Launch vehicle
Unknown
Launch site
Air Force Western Test Range (AFWTR)
Object type
Payload
Rocket body
Debris
Shape & HBR
Unknown shape, 0.1 m
Radar Cross Section
Small (<0.1 m²)

Expand to show TLE details & history
Last TLE update: 8 hours ago

TLE from 8 hours ago
0 DELTA 1 DEB
1 10721U 76077AS  25291.33106354  .00000850  00000-0  48387-2 0  9997
2 10721 101.7840 230.8428 0043261 116.5299  35.7501 12.64589227257731
Epoch: 2025-10-18T07:56Z
TLE epoch observation values (Epoch: 2025-10-18T07:56:43.889Z)
Latitude
26.84128°
Longitude
-89.37386°
Altitude
1,379.775 km
Speed
7.184 km/s
True Right ascension
03h 47m 29s
True Declination
26° 42' 51"
Sunlit
Object was in full shadow at epoch
Visualization orbit readout
Latitude
Unknown
Longitude
Unknown
Altitude
Unknown
Speed
Unknown
Apparent Right ascension
Unknown
Apparent Declination
Unknown
Sunlit
N/A
Visualization observer readout
Local Sidereal Time
10:32:31
Azimuth
Unknown
Elevation
Unknown
Doppler factor
Unknown
Orbital elements
Apogee altitude
1,435.245 km
Perigee altitude
1,367.933 km
Semi-major axis
7,779.726 km
Eccentricity
0.00433
Inclination
101.784°
RAAN
230.8428°
Arg. of periapsis
116.5299°
True anomaly
36.04101°
Mean anomaly
35.7501°
Eccentric anomaly
35.89543°
Mean motion
3.16298 °/min
Orbital period
113.82 mins
BSTAR
0.0048387
Loading maneuver chart data...
Computing Atmospheric mass density...
Loading historical data...
Loading historical data...
Loading historical data...
Loading historical data...
Loading historical data...
Loading historical data...
Loading historical data...

Documentation

Showing up to 5 results
|